Weather in Trakt

Russia / Komi Republic     62°41′56″N   51°17′25″E
temp.,
°C
wind,
m/s
gust,
m/s
humid.,
%
clouds,
%
prec.,
mm/h
press.,
hPa
HPBL,
m
7 may, fri
fri700:00+3ese2357100 0.0 101086
03:00+3ese3965100 0.1 1009306
06:00+3ese31082100 0.4 1008357
09:00+9sse367574 0.4 1007437
12:00+11s2781100 0.0 1007508
15:00+13sw2474100 0.3 1008347
18:00+11sse1184100 0.1 100721
21:00+9ssw0096100 0.7 100615
8 may, sat
sat800:00+7w4893100 1.4 1008562
03:00+6wsw4986100 2.2 1011875
06:00+7wsw498767 0.0 1013609
09:00+9wsw4663100 0.1 10151309
12:00+11wsw355456 0.0 10171383
15:00+15sw243675 0.0 10162227
18:00+14sse244158 0.0 1016263
21:00+9se2860100 0.0 1016145
9 may, sun
sun900:00+9se41263100 0.0 1015339
03:00+9se51659100 0.0 1013629
06:00+9se51470100 0.0 1013624
09:00+12se61568100 0.1 1011895
12:00+18sse71648100 0.0 10092416
15:00+16ssw71760100 0.4 10092270
18:00+13s61782100 1.6 10091621
21:00+11ssw41186100 2.4 10111054
10 may, mon
mon1000:00+9wsw5988100 0.6 1013965
03:00+6w4885100 0.9 1017784
06:00+5w4979100 0.0 1020829
09:00+9w584887 0.1 10211931
12:00+12w5832100 0.0 10222807
15:00+13w583299 0.0 10232595
18:00+11wsw474553 0.0 10241805
21:00+8sw39685 0.0 1023265
11 may, tue
tue1100:00+7ssw257596 0.0 1024149
03:00+7ssw2675100 0.0 1023222
06:00+6ssw3891100 0.4 1023367
09:00+7ssw3995100 1.8 1022515
12:00+10sw41293100 1.3 1020659
15:00+14w41183100 2.4 1019652
18:00+13w398792 0.1 1020333
21:00+12wsw31290100 0.1 1020297